Theta_e
295 293 294 294 293 295 293 292 290 282 285 287 288 289 290 291 293 293 291 295 300 301 301 301 300 300 301 301 302 302 302 303 303 303 304 303 304 304
295 294 293 293 293 293 293 295 294 289 285 288 287 287 289 291 292 291 291 295 298 299 300 299 300 300 300 300 300 300 301 301 301 301 302 302 302 302
295 295 294 293 292 292 291 292 292 294 287 287 287 287 287 287 289 290 290 289 290 297 298 299 299 299 299 299 298 299 299 299 299 299 299 300 300 301
295 294 293 293 292 292 291 291 290 290 291 287 285 285 285 286 286 287 289 290 288 293 297 298 298 298 298 297 297 298 297 297 296 296 297 298 299 299
296 295 294 293 292 291 290 290 289 289 289 288 285 287 285 286 286 286 286 286 288 292 296 298 298 297 297 296 297 296 295 294 295 295 296 297 297 297
296 296 295 294 293 292 291 291 289 288 287 288 286 285 286 286 285 285 284 285 285 289 292 294 294 295 295 294 294 293 292 293 294 295 295 295 294 295
295 295 295 295 295 295 292 290 290 288 286 286 287 285 286 285 285 284 284 283 284 285 284 284 285 284 284 288 288 290 292 293 294 294 293 294 293 293
293 293 293 294 295 298 297 296 294 289 287 286 285 286 286 286 285 284 281 279 281 283 280 282 283 282 282 283 289 291 291 292 292 292 292 292 292 292
293 292 291 293 294 295 298 297 296 297 294 290 287 287 286 287 286 284 284 285 283 284 279 278 281 281 282 284 288 289 290 291 290 290 290 291 291 291
294 293 292 292 293 293 294 292 291 294 294 291 290 290 290 290 289 289 288 286 284 283 280 276 279 278 281 282 286 288 289 289 288 289 289 289 289 289
293 294 293 291 295 296 293 291 291 291 296 296 295 295 296 295 291 288 285 284 282 282 281 276 277 276 279 279 281 286 287 286 287 287 288 288 288 288
292 292 295 293 297 297 292 291 289 288 290 289 290 292 292 293 292 287 286 283 282 280 280 273 275 273 273 278 280 280 279 283 285 285 286 286 287 283
292 292 293 296 297 297 295 291 290 289 291 287 286 285 284 282 281 282 283 282 279 278 281 275 272 272 269 272 277 278 278 279 279 280 283 284 286 285
293 294 294 296 296 297 295 293 293 291 286 284 283 282 281 280 280 280 281 281 281 279 281 277 269 268 264 267 270 275 277 278 278 278 279 282 283 284
297 296 296 296 296 296 294 294 292 286 285 284 283 281 281 280 280 280 280 280 280 280 281 277 272 267 267 266 268 272 275 276 278 277 277 278 277 278
294 294 295 295 294 294 292 292 287 286 285 284 282 280 279 278 278 279 277 278 274 274 279 278 273 268 266 270 271 272 274 269 276 277 277 277 278 278
292 292 290 289 289 289 288 286 286 286 282 280 280 278 278 278 278 277 276 274 269 269 270 273 274 272 272 272 266 270 271 273 276 276 275 275 276 278
290 289 288 287 287 287 286 284 284 284 282 281 280 279 278 278 276 274 274 270 268 267 266 267 267 269 269 269 276 269 266 268 275 275 275 273 274 277
289 288 287 287 287 287 286 284 283 282 282 281 280 279 278 275 275 273 272 270 267 265 265 264 263 265 265 263 267 278 265 273 273 273 275 274 273 275
288 288 287 287 286 286 285 283 282 281 281 280 279 278 275 274 273 272 270 266 264 264 263 261 262 265 271 270 270 267 279 272 273 272 273 275 276 280
287 287 287 286 286 285 284 283 282 281 280 278 276 275 275 274 271 271 271 274 270 262 262 262 265 276 262 261 264 267 270 279 278 273 274 272 271 273
287 286 286 285 285 284 283 282 281 280 277 276 275 275 274 274 272 270 269 267 265 263 262 260 264 261 260 261 262 262 270 273 276 279 279 277 272 270
286 286 285 285 284 283 282 281 280 277 276 275 275 274 273 272 272 271 269 268 265 262 261 262 261 259 260 260 268 263 263 269 271 272 272 279 279 279
Wind_Speed
12 10 5 4 4 4 3 4 7 5 6 4 3 4 5 4 6 5 6 7 11 11 11 9 10 11 11 13 14 14 15 18 19 19 21 22 22 22
10 12 8 4 5 4 4 3 3 5 3 3 5 3 5 4 6 5 5 8 11 13 11 11 12 10 11 14 15 13 16 18 19 20 22 22 20 23
14 15 13 8 5 4 4 3 3 3 4 1 1 2 3 4 4 4 5 4 5 11 12 11 12 10 12 14 14 15 16 17 18 20 21 22 21 24
15 14 13 9 9 6 4 5 4 3 4 4 2 1 3 3 3 4 3 4 5 9 13 12 12 12 12 12 14 17 16 16 18 19 21 21 21 23
14 15 13 13 11 7 5 6 4 3 3 4 3 1 1 2 1 1 4 3 4 9 13 13 12 12 14 11 15 17 15 17 18 21 21 21 23 24
14 14 14 15 14 12 9 8 6 5 4 4 2 2 2 1 1 3 3 3 3 2 7 6 9 10 13 12 14 13 15 17 19 20 20 22 24 26
12 12 11 13 15 16 10 8 8 6 4 4 3 2 3 3 4 3 3 2 3 2 2 2 3 3 5 9 9 11 17 18 17 19 22 24 25 26
14 12 10 13 12 16 14 16 14 11 6 5 3 5 4 4 3 4 3 1 2 0 1 3 1 3 4 3 10 15 14 13 17 21 23 25 25 26
13 12 9 9 11 10 13 14 14 15 9 10 7 7 5 7 6 4 4 3 3 2 3 3 2 4 4 5 12 11 10 15 19 20 25 25 25 26
15 14 14 11 11 11 10 8 7 9 7 6 6 6 5 6 6 5 6 3 3 2 2 3 2 3 4 5 8 10 13 19 19 23 24 23 25 27
15 14 13 11 14 17 12 10 8 6 8 9 7 8 8 10 9 5 3 3 1 2 0 2 3 3 3 5 3 10 17 17 22 25 23 24 27 28
11 11 18 15 20 21 12 12 10 7 8 6 5 7 7 8 9 4 4 3 2 1 1 2 2 2 5 4 4 5 6 13 22 20 23 27 28 13
11 10 9 19 21 22 15 9 8 10 11 8 6 4 4 5 4 5 4 3 3 1 2 3 1 2 0 4 5 5 4 10 9 12 21 24 28 24
13 10 11 21 19 16 13 12 17 13 7 7 6 4 4 3 4 5 5 5 5 4 2 3 2 3 2 3 5 4 9 8 4 8 11 19 25 27
10 14 20 22 19 15 17 18 18 8 8 7 6 4 3 4 6 5 4 5 5 3 2 2 3 3 3 3 5 4 9 6 6 8 10 12 13 13
14 14 17 17 15 12 12 13 6 7 8 7 6 5 5 4 3 2 2 1 2 2 3 1 3 3 3 5 5 9 6 4 7 9 10 12 12 12
14 10 10 10 9 9 8 7 7 7 6 5 7 6 6 5 3 2 2 2 3 1 2 3 3 4 6 7 3 4 4 7 8 10 10 11 11 12
11 11 10 10 11 11 10 9 7 10 7 8 7 7 7 6 6 2 3 3 3 1 1 3 4 5 4 4 9 4 3 3 10 11 11 11 12 13
8 10 11 11 10 10 10 10 7 7 9 7 8 7 7 6 9 4 3 2 2 1 1 1 2 1 4 4 4 5 3 8 9 10 9 10 13 14
9 11 10 10 10 11 10 10 9 8 7 7 7 7 7 7 7 5 3 4 2 1 2 2 0 1 1 2 5 4 12 7 7 10 10 11 13 24
10 9 9 10 10 10 10 10 10 9 9 8 7 7 7 8 6 5 5 8 6 2 1 2 4 5 1 2 4 6 4 11 11 10 12 10 8 8
10 11 10 10 10 10 10 10 10 10 9 8 8 8 7 7 7 6 4 4 2 3 2 3 4 4 3 2 4 5 8 10 12 17 15 13 7 10
10 11 10 10 10 10 10 10 10 9 9 9 9 8 8 7 7 6 5 4 4 2 1 3 3 2 2 3 5 4 7 10 9 13 9 18 22 22
Wind_Direction
184 176 174 175 179 167 156 148 143 147 225 236 194 188 188 193 204 201 211 235 245 248 263 281 298 303 315 311 319 318 318 320 320 321 322 325 325 323
180 174 180 165 172 171 159 154 139 136 145 186 222 171 185 182 203 187 211 222 246 250 257 278 282 293 304 307 310 311 317 318 319 320 321 324 323 320
177 181 182 162 170 167 152 145 146 120 117 255 192 167 159 178 177 174 208 224 247 252 263 269 281 295 299 303 307 310 318 318 317 319 320 321 320 321
172 179 182 170 168 167 165 165 162 157 128 147 170 177 189 203 173 177 224 217 242 251 259 265 279 289 291 305 306 311 319 318 315 317 320 318 318 318
175 180 177 171 171 173 168 165 163 147 116 123 147 164 161 152 164 157 228 241 249 248 261 271 282 286 294 304 308 315 322 318 315 320 322 319 320 319
176 187 182 186 177 181 179 176 156 150 135 117 131 138 143 206 152 177 267 234 263 261 259 258 265 277 290 304 313 319 317 319 326 325 321 320 321 322
173 187 184 191 186 184 172 171 156 147 142 134 147 134 154 192 202 164 219 302 278 218 302 286 275 290 298 314 319 317 323 327 330 328 326 322 323 323
171 183 183 177 182 178 177 172 173 164 171 149 135 193 192 204 153 164 153 129 299 6 61 279 291 290 289 290 312 328 326 333 333 330 325 325 326 325
176 179 174 185 177 183 179 170 181 184 169 166 180 182 199 184 145 163 189 181 193 217 91 279 313 292 290 301 326 331 332 334 334 329 324 325 327 325
176 179 183 178 185 170 172 168 179 191 182 178 183 177 185 160 171 174 177 151 91 87 108 257 357 277 313 307 327 325 332 335 333 327 325 328 328 327
176 179 175 174 181 173 169 175 181 189 164 162 167 165 169 160 156 125 141 115 188 222 320 125 333 307 305 301 304 320 331 334 332 330 329 331 332 329
167 170 173 171 175 175 174 181 187 175 150 118 108 93 103 133 131 67 137 131 132 273 202 106 348 354 325 298 305 322 327 325 334 329 330 333 333 330
172 172 174 171 175 180 174 174 190 138 147 133 115 108 94 86 76 72 82 117 136 119 182 109 165 9 20 308 303 322 337 325 325 320 322 328 330 330
175 175 170 170 169 176 168 165 144 142 141 127 137 137 128 112 96 91 87 86 69 120 143 114 164 144 121 309 283 318 321 311 312 313 317 321 321 321
174 173 161 163 169 173 169 154 151 145 138 152 164 134 123 135 119 94 88 85 88 97 108 121 145 168 147 219 278 298 321 306 318 315 316 317 315 310
145 151 158 154 158 155 144 151 138 145 153 148 136 114 118 117 105 102 94 85 84 29 13 205 206 135 278 226 234 281 278 291 313 311 308 306 302 300
133 132 138 143 147 149 146 138 139 144 137 126 136 133 132 129 104 97 99 87 94 111 310 296 304 240 231 243 295 238 276 296 300 312 313 303 302 303
141 151 149 156 161 159 156 147 146 144 142 134 134 144 145 150 134 134 99 126 127 158 293 313 350 343 340 315 205 273 288 259 310 313 311 312 309 314
148 155 157 161 161 158 154 157 150 145 136 137 141 146 145 147 140 132 133 105 81 96 318 8 36 36 8 327 284 263 217 303 306 314 319 316 306 307
156 157 156 154 156 154 154 142 139 139 137 141 141 142 143 138 136 140 129 122 122 109 18 320 149 171 77 274 301 261 293 288 319 312 313 307 292 296
155 149 147 149 149 148 142 142 146 145 142 139 138 138 139 134 126 142 146 142 125 121 113 283 242 304 193 47 341 296 273 324 336 319 316 315 317 315
153 146 145 143 142 142 141 140 139 141 140 137 139 136 135 139 143 146 133 124 131 155 210 269 326 17 49 155 256 263 305 320 332 333 324 327 322 319
149 141 144 142 139 140 143 142 137 139 141 135 135 135 140 135 140 142 133 127 131 129 99 326 329 19 263 211 313 289 305 317 324 332 333 325 323 312